Volver al catálogo

CZ-6A DEB

ActivoSSO
NORAD 54337·DEBRIS·🇨🇳 China

Lanzado Nov 11, 2022 desde Taiyuan Satellite Launch Center

Loading…

Próximos Pases (próximas 24 horas)

TLE

ActualizadoSource: Space-Track

Época: Sep 14, 2026, 10:49 UTC

1 54337U 22151CG  26257.45085313  .00000266  00000-0  17311-3 0  9994
2 54337  98.8558 255.5011 0051251  90.6392 270.0652 14.09998329196944

Sigue CZ-6A DEB en tiempo real con AllMySat

Download on the App Store